Temperature
15 15 15 16 16 17 19 22 23 22 22 21 21 21 20 19 19 16 15 15 15 15 15 16 16 16 16 17 17 17 17 17 17 17 17 17 17 17 17 17 17 17 17 17 17 17 17 17 16
15 15 15 17 17 18 20 22 22 21 20 20 20 21 20 19 17 15 14 14 15 15 15 15 16 16 16 16 17 17 17 17 17 17 17 17 17 17 17 17 17 17 17 17 17 17 16 16 16
14 15 16 17 18 20 21 21 20 19 19 20 20 20 19 18 16 15 14 14 15 14 15 15 15 16 16 16 16 16 16 16 17 17 17 17 17 17 17 17 17 17 17 16 16 16 16 16 16
14 15 17 17 19 20 21 20 19 20 19 19 19 19 17 16 15 14 14 14 14 14 14 14 15 15 16 16 16 16 16 16 16 16 16 16 16 16 16 16 16 16 16 16 16 16 16 16 16
14 16 17 18 19 20 19 19 19 19 19 19 19 18 16 15 15 14 14 14 14 14 14 14 14 15 15 15 15 15 16 16 16 16 16 16 16 16 16 16 16 16 16 16 16 16 16 16 16
16 17 17 18 20 20 19 18 19 19 19 18 18 17 16 15 14 14 14 14 14 13 13 13 13 14 14 14 15 15 15 15 15 16 16 16 16 16 16 16 16 16 16 16 16 16 16 16 16
16 16 17 19 20 19 18 17 18 17 17 17 17 17 15 14 14 13 13 13 13 13 13 13 13 13 13 14 14 14 14 15 15 15 15 15 15 15 15 15 15 16 16 16 16 16 16 15 15
15 16 18 19 19 18 17 17 16 16 16 16 16 16 15 13 13 13 13 13 13 12 12 12 12 12 13 13 13 13 14 14 14 14 15 15 15 15 15 15 15 15 15 15 15 15 15 15 15
14 15 17 18 18 17 16 16 16 15 15 15 15 14 14 13 13 13 12 12 12 12 12 12 12 12 12 12 12 13 13 13 14 14 14 14 14 14 14 15 15 15 15 15 15 15 15 15 15
15 14 16 16 16 15 15 15 15 15 15 15 14 14 13 13 12 12 12 12 12 11 11 11 11 11 11 12 12 12 12 12 13 13 13 13 14 14 14 14 14 14 14 14 14 14 14 14 14
15 15 15 15 14 14 14 14 14 14 14 15 14 13 13 12 12 12 12 12 11 11 10 10 10 10 10 11 11 11 11 11 12 12 12 12 13 13 13 13 13 13 13 13 14 14 14 14 14
15 15 15 14 12 13 13 13 13 13 14 13 13 13 12 12 12 11 11 11 10 10 10 10 10 10 10 10 10 10 10 11 11 11 11 11 12 12 12 12 13 13 13 13 13 13 13 13 13
14 14 14 13 12 12 12 12 12 13 13 13 12 12 12 12 11 11 11 10 10 10 10 9 9 9 9 9 9 9 9 9 10 10 11 11 11 11 11 11 12 12 12 12 12 12 12 12 12
13 13 13 13 12 12 12 12 12 13 13 12 12 12 11 11 11 10 10 10 10 9 9 9 9 9 9 9 9 9 9 9 9 9 10 10 10 10 10 10 11 11 11 11 12 11 12 12 12
12 12 12 13 13 13 11 11 12 13 13 12 12 12 11 11 11 10 10 10 9 9 9 9 8 8 8 8 8 8 8 8 9 9 9 9 9 10 10 10 10 10 11 11 11 11 11 11 11
13 12 13 13 13 12 11 11 14 13 13 12 12 12 11 11 10 10 10 9 9 9 8 8 8 8 8 7 8 8 8 8 8 8 8 9 9 9 9 9 9 10 10 10 10 10 10 10 10
12 12 13 13 13 12 11 11 13 13 12 12 12 12 11 11 10 10 9 9 9 8 8 8 8 7 7 7 7 7 7 7 8 8 8 8 8 8 8 8 9 9 9 9 9 9 10 10 10
12 13 13 13 12 11 11 11 12 13 13 12 12 12 11 11 10 10 9 9 8 8 8 7 7 7 7 7 7 7 7 7 7 7 8 8 8 8 8 8 8 8 8 9 9 9 9 9 10
12 12 12 12 12 11 10 11 12 13 12 12 12 12 11 11 10 10 9 9 8 8 7 7 7 7 7 6 6 6 6 7 7 7 7 7 7 7 7 7 8 8 8 8 8 8 9 9 9
11 11 11 12 12 11 10 10 12 12 12 12 12 12 11 11 10 9 9 8 8 8 7 7 7 7 6 6 6 6 6 6 6 6 6 7 7 7 7 7 7 7 7 7 8 8 8 8 8
11 10 11 10 10 11 10 10 12 12 12 11 11 11 11 10 10 9 9 8 8 7 7 7 7 7 6 6 6 6 6 6 6 6 6 6 6 6 6 7 7 7 7 7 7 7 7 8 8
10 10 10 9 8 9 10 8 11 11 10 10 11 11 11 10 9 9 8 8 8 7 7 7 7 6 6 6 6 5 5 5 5 5 5 5 6 6 6 6 6 6 6 7 7 7 7 7 7
9 9 9 9 8 7 9 7 9 11 10 10 10 11 11 10 9 9 8 8 7 7 7 7 6 6 6 6 5 5 5 5 5 5 5 5 5 5 6 6 6 6 6 6 6 6 7 7 7
9 9 8 8 7 7 9 8 9 10 10 10 10 11 10 10 9 9 8 8 7 7 7 6 6 6 6 5 5 5 5 5 5 5 5 5 5 5 5 5 5 6 6 6 6 6 6 6 6
8 7 8 8 7 8 10 9 9 11 11 10 9 10 10 10 9 9 8 8 7 7 6 6 6 6 5 5 5 5 5 4 4 4 5 5 4 5 5 5 5 5 5 5 5 6 6 6 6
8 8 7 8 9 9 9 8 10 11 11 11 11 10 10 9 9 8 8 7 7 7 6 6 6 5 5 5 5 5 4 4 4 4 4 4 4 4 5 5 5 5 5 5 5 5 5 6 6
8 7 8 7 6 6 8 11 11 11 10 10 10 10 10 9 9 8 8 7 7 7 6 6 5 5 5 5 5 4 4 4 4 4 4 4 4 4 4 4 4 4 4 5 5 5 5 5 5
7 8 6 6 6 7 9 10 9 9 9 9 9 9 9 9 9 8 8 7 7 6 6 6 5 5 5 4 4 4 4 4 4 4 4 4 4 4 4 4 4 4 4 4 4 4 4 5 5
6 6 6 6 6 6 7 9 11 10 10 9 9 10 9 9 8 8 7 7 6 6 6 5 5 5 4 4 4 4 4 3 3 3 3 3 3 3 4 4 4 4 4 4 4 4 4 4 5
7 6 5 5 5 6 5 7 11 10 10 10 9 10 9 9 8 8 7 6 6 5 5 5 5 4 4 4 4 3 3 3 3 3 3 3 3 3 3 3 3 3 4 4 4 4 4 4 4
Wind_Speed
13 12 8 3 4 5 7 4 2 5 4 6 6 5 5 6 6 7 4 5 5 6 10 12 13 12 12 11 11 10 9 7 6 5 4 2 1 2 3 3 3 4 5 5 6 7 7 8 9
12 8 5 4 4 6 6 3 4 6 6 4 3 3 2 5 6 7 4 5 5 6 10 12 12 13 12 11 10 10 9 8 7 5 4 3 2 0 2 2 3 3 4 5 5 6 7 7 9
10 8 4 4 5 4 1 7 9 8 6 3 3 4 4 4 6 5 4 4 5 6 10 11 12 12 12 11 10 9 8 8 7 6 4 3 2 1 0 2 3 3 3 4 5 5 7 7 8
5 4 5 5 10 4 4 6 6 5 3 1 1 2 3 6 5 5 4 5 5 6 9 10 11 11 11 11 11 9 8 7 7 6 5 3 2 2 1 1 2 3 3 4 5 6 6 8 9
4 4 5 7 9 2 4 7 3 0 2 1 1 2 3 6 8 7 5 5 5 5 7 8 9 9 10 10 11 10 9 7 7 6 5 4 3 3 2 2 2 3 4 4 5 5 6 7 9
4 4 5 8 7 3 5 4 1 3 1 1 2 1 3 6 7 5 5 5 5 5 6 6 7 8 8 9 9 10 9 8 7 6 6 5 5 4 3 3 3 3 4 5 5 5 6 7 9
4 4 6 8 3 3 4 3 2 3 1 3 4 2 3 6 6 5 4 5 5 6 5 5 6 7 8 8 8 9 9 8 7 6 6 6 5 5 4 4 3 4 4 4 6 6 6 8 9
4 4 6 5 3 2 4 2 3 4 3 3 4 3 2 4 4 4 4 4 4 4 4 4 6 8 7 7 7 8 9 9 8 7 6 6 6 5 5 4 4 4 5 6 6 7 7 8 9
4 4 4 3 2 4 4 1 1 2 3 1 0 2 3 3 3 3 3 2 2 3 3 4 4 6 7 7 8 8 8 9 9 7 7 6 4 4 4 4 4 5 5 6 7 7 8 8 10
3 3 2 5 7 4 3 2 3 2 5 4 2 0 2 2 3 3 3 3 4 4 4 4 4 4 5 6 6 6 7 8 8 7 7 5 5 4 4 4 4 5 6 6 6 7 8 8 7
3 2 2 4 7 5 3 3 3 5 5 4 2 0 1 1 2 3 3 3 4 3 4 4 3 3 3 3 4 4 5 5 6 7 7 6 4 4 3 2 2 3 4 3 4 5 5 6 6
3 1 3 3 3 3 4 4 5 6 6 4 3 2 2 3 3 2 3 4 4 3 3 3 2 2 2 3 3 3 3 3 3 5 6 4 2 1 1 1 2 2 2 2 3 3 5 5 5
4 1 1 1 1 5 6 8 7 9 7 3 3 3 3 4 4 3 3 3 3 3 3 3 3 2 1 2 2 2 2 3 3 4 5 4 1 2 2 2 2 2 2 3 3 4 5 5 6
2 2 3 4 5 5 6 9 7 8 6 5 5 5 5 4 3 3 2 2 3 3 3 3 3 2 1 1 2 2 2 3 3 3 4 4 2 2 2 2 3 3 2 3 4 4 4 4 5
2 4 6 6 5 2 3 8 8 7 4 5 6 6 5 5 3 3 2 2 2 2 3 3 4 3 2 2 3 3 2 3 3 3 5 5 3 2 3 2 3 3 3 4 4 4 3 4 4
5 4 4 5 4 4 1 7 2 4 4 6 7 6 5 4 4 3 2 2 2 2 3 3 4 4 3 3 4 3 3 3 3 3 4 5 4 3 3 3 3 3 3 3 3 3 3 4 4
4 4 4 2 4 2 4 8 4 3 5 7 7 6 5 4 4 3 2 1 1 2 3 3 3 4 4 4 4 4 3 3 3 4 4 4 5 4 3 3 3 3 3 3 4 3 3 4 4
2 4 4 3 3 3 8 12 9 6 7 7 7 5 4 4 4 3 2 1 2 2 3 4 4 5 4 4 4 3 4 4 3 4 4 5 5 4 3 3 3 3 3 3 4 4 4 4 4
5 6 8 6 1 4 10 14 13 8 7 8 7 5 4 4 2 2 2 2 3 3 4 4 4 4 3 3 3 3 4 4 4 4 5 5 5 5 4 4 4 4 4 5 5 4 5 4 3
5 7 8 6 2 5 10 15 14 8 7 6 6 5 4 2 1 2 2 2 3 3 4 4 5 5 4 3 4 4 4 4 5 4 5 6 6 5 6 5 5 5 4 5 5 4 4 4 4
6 6 6 7 9 8 8 11 6 3 3 3 4 5 4 4 3 3 3 3 3 3 4 5 5 5 5 5 4 4 4 4 4 5 5 6 7 6 6 7 6 6 6 6 6 6 6 5 5
4 2 4 7 7 5 2 6 6 4 5 6 6 5 5 4 3 3 3 4 3 4 4 5 6 6 6 5 5 6 6 6 7 6 5 6 7 8 8 8 7 7 6 7 7 7 6 6 6
2 3 5 6 6 6 5 5 8 5 5 6 6 5 3 3 3 3 4 4 4 4 4 5 6 6 6 5 5 6 7 7 6 6 7 7 7 8 9 9 8 8 7 8 8 7 7 7 7
2 4 5 4 2 5 6 6 6 4 5 5 4 3 3 2 3 4 4 4 4 4 4 5 6 6 6 6 6 7 8 8 8 9 8 7 7 7 8 9 9 9 8 9 9 9 9 8 8
2 1 1 1 2 6 4 4 7 2 2 5 5 4 3 2 2 3 5 5 5 6 5 5 5 6 6 6 6 7 8 8 9 9 8 8 7 7 8 9 9 8 9 9 9 10 10 10 10
3 2 2 3 4 3 1 6 5 2 4 3 3 3 2 3 3 4 5 6 6 6 5 5 6 7 7 7 7 7 7 6 7 8 8 8 8 8 8 9 9 10 10 11 10 10 10 10 10
2 3 1 1 3 5 6 5 2 3 3 3 2 2 3 3 4 4 4 5 5 6 6 6 7 7 7 7 7 7 8 8 8 8 8 8 8 9 10 9 10 9 10 11 11 10 11 10 10
3 0 2 2 2 5 6 6 4 5 5 4 3 3 4 4 4 5 5 5 5 6 6 6 7 8 8 7 7 7 7 8 8 8 9 10 10 9 9 9 10 10 11 11 11 11 11 12 11
5 3 4 3 3 4 5 5 1 3 4 4 4 3 4 4 5 5 5 5 6 6 6 7 7 8 8 7 7 8 8 8 8 8 10 10 10 9 9 9 9 10 11 11 11 12 12 13 12
6 6 6 4 5 4 4 7 1 2 2 1 1 2 3 5 5 4 4 5 6 7 7 7 7 8 8 8 8 8 8 8 8 9 10 9 9 9 9 9 9 10 11 11 12 13 13 13 13
Wind_Direction
294 263 244 238 234 233 240 234 113 79 55 31 20 6 27 26 29 98 122 28 31 50 52 50 36 31 32 31 29 28 32 34 36 38 39 40 91 148 158 164 168 169 165 165 170 172 171 166 163
289 256 234 236 241 240 233 193 103 68 62 38 13 339 44 70 68 93 74 14 27 54 57 50 37 30 28 28 27 25 26 26 24 25 25 28 30 190 184 176 178 182 178 174 170 173 167 170 167
273 255 238 233 233 250 19 69 77 76 67 28 26 11 23 63 68 74 50 8 27 55 64 56 42 32 27 23 23 21 19 18 15 10 6 4 4 352 240 207 189 183 188 189 180 172 167 165 169
256 227 240 247 254 277 28 64 68 94 102 50 61 68 65 49 61 68 41 17 26 48 62 60 47 35 28 24 18 16 10 6 2 1 349 337 333 323 281 215 198 193 195 199 194 184 180 176 173
246 241 232 237 245 244 60 57 45 274 125 91 7 55 83 70 71 62 37 16 21 41 53 58 49 39 30 23 17 9 4 358 351 349 336 319 306 301 288 243 216 208 205 200 198 191 189 182 182
247 245 245 240 232 146 96 67 315 288 54 44 7 12 114 92 64 48 30 14 16 34 41 50 43 35 26 20 14 8 357 349 342 340 330 315 302 285 272 251 235 222 215 206 199 194 193 189 190
266 263 260 274 272 122 96 61 329 325 358 25 2 342 136 84 58 35 17 16 19 26 27 32 35 30 22 15 9 4 355 342 332 328 324 314 302 284 264 253 240 226 222 215 209 200 197 198 197
307 282 258 264 266 102 83 74 26 344 350 34 355 322 80 53 37 18 4 8 22 23 16 20 25 24 16 6 3 0 350 342 328 321 317 313 298 283 264 250 242 234 228 222 213 208 204 202 204
294 265 271 325 1 75 79 42 53 344 303 293 1 5 39 30 19 6 349 345 9 19 22 27 23 20 7 355 359 351 348 345 338 327 327 324 312 294 274 256 250 240 236 228 219 214 210 205 203
243 262 1 21 16 35 50 338 339 273 259 250 217 119 64 25 353 328 323 339 360 10 15 23 15 14 6 356 355 348 350 346 343 339 334 325 320 312 302 274 253 242 238 232 222 220 213 203 196
236 276 30 37 28 12 350 309 299 288 271 270 268 16 43 315 301 307 323 347 360 8 13 14 1 4 0 351 349 346 348 344 344 340 331 326 326 326 325 303 264 248 236 218 220 213 211 207 197
268 300 340 19 26 330 302 294 286 256 268 340 358 348 294 286 290 303 331 345 359 9 2 352 355 344 346 348 335 333 338 337 336 331 322 325 312 298 290 272 264 233 230 213 207 210 216 214 205
245 268 317 349 275 272 279 274 274 267 261 271 265 253 265 274 294 322 349 342 347 354 348 340 334 316 311 329 312 322 306 311 319 322 319 318 291 265 266 259 260 255 242 210 219 222 217 213 207
347 300 271 254 250 254 272 273 257 250 230 224 232 234 240 253 264 294 312 313 323 328 326 329 326 299 283 298 290 282 291 304 310 311 308 305 298 259 262 255 257 253 242 230 228 235 225 217 212
283 265 240 216 222 198 306 269 226 227 209 228 231 227 230 237 243 255 264 281 298 311 317 318 315 304 276 281 280 284 282 293 287 295 300 294 286 267 263 259 259 252 253 243 239 238 234 226 220
227 243 241 175 192 148 239 277 195 153 201 233 236 235 225 225 235 236 239 258 297 310 311 308 307 312 286 269 266 269 274 280 279 286 290 283 275 274 259 250 256 264 254 237 240 231 232 228 220
214 250 256 174 183 205 239 270 261 193 224 238 237 238 231 225 229 222 223 241 282 298 298 299 297 294 285 270 262 263 262 262 268 278 275 274 266 264 256 247 251 266 247 239 246 233 225 230 228
288 284 284 267 165 270 267 270 269 251 242 243 240 234 227 227 228 219 222 248 278 280 284 283 281 278 279 279 269 268 264 263 261 263 264 264 263 258 256 252 247 250 246 244 237 236 233 229 223
307 296 287 289 330 294 272 277 277 257 240 241 239 230 218 221 210 196 226 247 260 266 277 288 293 283 272 276 270 270 267 266 269 261 266 269 263 255 247 256 246 242 241 241 241 239 231 227 217
277 281 284 293 330 297 282 281 275 252 236 234 229 225 208 202 238 250 266 268 261 265 281 287 289 285 273 267 266 257 264 264 260 257 260 259 257 251 256 243 239 238 242 243 239 240 238 229 205
265 260 295 311 314 264 275 289 239 179 187 191 207 207 196 204 225 251 267 275 282 278 273 287 287 285 272 270 277 276 275 278 273 266 263 259 260 252 249 245 238 234 231 237 237 228 236 228 218
268 358 315 304 309 293 278 294 266 188 188 195 204 204 202 207 219 248 269 280 284 275 271 275 283 279 273 272 273 271 273 273 271 266 262 261 259 250 244 242 238 232 229 231 235 233 224 224 220
278 337 293 282 276 290 244 242 275 182 204 199 194 200 201 207 221 247 260 267 275 274 266 268 271 273 272 268 265 267 272 272 273 272 269 270 262 250 243 238 235 232 228 226 228 230 223 222 221
296 285 253 245 256 271 226 211 270 208 199 182 179 191 201 222 239 248 259 268 281 283 277 267 267 273 274 271 265 261 266 272 276 275 270 267 262 251 241 236 233 231 228 226 226 226 225 225 224
240 328 337 287 243 251 168 214 252 239 140 169 186 199 209 242 273 271 276 279 286 288 279 270 272 280 280 277 273 265 265 267 268 269 267 269 267 259 245 241 236 235 230 228 227 226 226 224 223
219 209 185 244 271 303 249 241 253 156 124 135 163 185 210 245 265 272 269 275 281 284 284 281 282 286 285 281 276 270 268 267 267 267 267 266 264 257 251 242 241 241 234 232 228 229 227 226 223
189 200 346 238 282 282 254 238 240 158 147 170 201 237 260 269 276 288 286 284 286 286 281 278 283 286 287 284 281 280 275 274 272 271 271 271 270 264 255 248 245 243 239 233 230 231 229 226 224
288 168 136 184 243 270 268 243 228 190 204 213 226 258 270 277 290 300 293 291 292 289 286 287 284 284 282 281 282 287 282 280 274 275 274 273 272 266 261 256 252 249 241 235 232 232 227 227 226
180 192 202 221 245 245 279 270 332 161 187 211 234 257 270 288 296 295 293 296 296 292 291 293 292 293 292 286 284 284 284 284 281 278 273 271 269 263 260 257 255 253 247 236 231 232 226 226 225
195 191 175 187 232 228 261 272 283 112 114 149 263 283 291 296 296 297 297 301 302 299 299 296 296 296 292 290 289 286 284 284 283 281 277 272 269 263 259 257 257 256 253 239 231 232 229 225 224
Height
1483 1486 1488 1492 1493 1492 1484 1470 1464 1468 1472 1477 1478 1479 1481 1485 1488 1500 1500 1498 1498 1497 1496 1495 1495 1495 1495 1495 1496 1497 1497 1498 1499 1500 1500 1501 1502 1503 1504 1505 1506 1507 1508 1509 1510 1511 1512 1513 1514
1483 1487 1491 1491 1491 1490 1478 1467 1468 1473 1477 1479 1480 1481 1482 1487 1491 1495 1497 1497 1497 1497 1495 1495 1494 1494 1494 1495 1495 1496 1496 1497 1498 1498 1499 1500 1501 1502 1503 1504 1505 1506 1507 1508 1509 1510 1511 1512 1513
1484 1487 1490 1486 1484 1481 1473 1470 1472 1476 1479 1481 1483 1484 1486 1490 1493 1495 1496 1496 1497 1496 1495 1494 1494 1493 1493 1494 1494 1495 1495 1496 1496 1497 1498 1498 1499 1500 1501 1502 1503 1504 1505 1507 1508 1509 1510 1511 1511
1486 1488 1488 1486 1481 1472 1471 1473 1475 1478 1481 1483 1484 1486 1489 1493 1494 1495 1495 1496 1496 1495 1494 1493 1493 1492 1492 1492 1493 1493 1494 1494 1495 1495 1496 1496 1497 1498 1499 1500 1501 1502 1503 1505 1506 1507 1508 1509 1510
1486 1486 1485 1483 1477 1472 1473 1476 1478 1479 1481 1484 1485 1487 1491 1493 1493 1494 1494 1495 1495 1494 1493 1493 1492 1491 1491 1491 1491 1491 1492 1492 1493 1493 1494 1494 1495 1496 1497 1498 1499 1500 1501 1503 1504 1505 1506 1507 1508
1486 1482 1484 1480 1472 1471 1474 1478 1480 1480 1482 1484 1486 1487 1491 1493 1492 1493 1493 1494 1494 1493 1492 1491 1491 1490 1489 1489 1489 1489 1489 1490 1490 1491 1491 1492 1493 1493 1494 1495 1496 1497 1499 1500 1501 1502 1503 1505 1506
1486 1482 1480 1473 1470 1472 1477 1480 1482 1482 1483 1485 1486 1487 1490 1491 1491 1492 1492 1493 1492 1492 1491 1490 1489 1488 1488 1487 1487 1487 1487 1487 1488 1488 1489 1489 1490 1491 1492 1493 1494 1495 1496 1497 1498 1499 1500 1502 1503
1483 1482 1476 1472 1471 1474 1479 1481 1483 1484 1485 1487 1487 1488 1489 1490 1490 1490 1491 1491 1491 1490 1489 1488 1487 1486 1486 1485 1485 1485 1485 1485 1485 1485 1486 1486 1487 1488 1489 1490 1491 1492 1493 1494 1495 1496 1497 1499 1500
1484 1485 1479 1473 1473 1477 1480 1482 1484 1485 1486 1486 1487 1488 1489 1489 1489 1489 1489 1489 1489 1488 1487 1486 1485 1484 1483 1483 1483 1482 1482 1482 1482 1482 1483 1483 1484 1484 1485 1486 1487 1489 1490 1491 1492 1493 1494 1495 1497
1484 1484 1479 1479 1478 1479 1481 1483 1484 1485 1484 1485 1486 1487 1487 1487 1488 1488 1488 1488 1487 1486 1484 1483 1483 1482 1481 1480 1480 1479 1479 1479 1479 1479 1479 1480 1480 1481 1482 1483 1484 1485 1486 1487 1488 1489 1490 1492 1493
1481 1481 1479 1480 1481 1482 1483 1484 1484 1484 1483 1483 1483 1484 1485 1486 1486 1486 1486 1486 1485 1483 1482 1481 1480 1479 1478 1477 1477 1476 1476 1476 1476 1476 1476 1476 1476 1477 1478 1479 1480 1481 1482 1483 1484 1485 1486 1488 1489
1481 1480 1481 1482 1483 1484 1484 1484 1483 1483 1482 1482 1482 1482 1483 1484 1484 1484 1484 1483 1482 1481 1479 1479 1478 1477 1476 1475 1474 1473 1473 1473 1473 1473 1473 1473 1473 1473 1474 1474 1476 1477 1478 1478 1480 1481 1482 1483 1485
1481 1481 1482 1483 1483 1484 1484 1483 1482 1479 1479 1480 1480 1481 1481 1481 1481 1481 1481 1480 1479 1478 1477 1476 1475 1474 1473 1472 1471 1471 1470 1470 1469 1469 1469 1469 1469 1469 1469 1470 1472 1473 1473 1474 1475 1477 1478 1479 1480
1480 1481 1481 1481 1482 1482 1481 1480 1479 1474 1475 1476 1477 1478 1478 1478 1478 1478 1478 1477 1476 1475 1474 1473 1472 1471 1470 1469 1468 1468 1467 1467 1466 1466 1466 1465 1465 1465 1466 1466 1467 1468 1469 1470 1471 1472 1473 1475 1476
1482 1481 1479 1478 1479 1479 1481 1477 1472 1470 1472 1473 1474 1474 1475 1475 1475 1475 1475 1474 1474 1473 1472 1470 1470 1468 1467 1466 1465 1464 1464 1463 1463 1462 1462 1462 1461 1461 1462 1462 1463 1464 1466 1466 1467 1468 1469 1470 1471
1480 1480 1478 1474 1476 1477 1482 1476 1467 1467 1469 1470 1471 1471 1472 1472 1472 1472 1472 1472 1471 1470 1469 1467 1466 1465 1464 1463 1461 1461 1460 1459 1459 1458 1458 1458 1457 1457 1457 1458 1459 1460 1461 1462 1463 1463 1464 1465 1466
1479 1479 1474 1474 1474 1474 1477 1473 1466 1466 1467 1467 1467 1468 1468 1468 1469 1469 1469 1469 1468 1467 1465 1464 1463 1461 1460 1459 1458 1457 1456 1455 1455 1454 1454 1454 1453 1453 1453 1453 1454 1456 1456 1457 1458 1459 1460 1460 1461
1480 1476 1472 1472 1472 1474 1473 1468 1463 1463 1463 1463 1463 1464 1465 1465 1466 1466 1466 1466 1465 1464 1462 1461 1459 1458 1457 1455 1454 1453 1452 1451 1451 1450 1449 1449 1449 1448 1449 1449 1450 1451 1452 1452 1453 1454 1455 1456 1457
1478 1478 1476 1472 1471 1473 1470 1464 1458 1457 1458 1458 1458 1460 1461 1462 1463 1463 1463 1463 1462 1461 1459 1457 1456 1454 1453 1451 1450 1448 1447 1446 1446 1445 1445 1445 1444 1444 1444 1444 1445 1446 1447 1447 1448 1449 1450 1450 1452
1478 1479 1475 1470 1469 1471 1467 1461 1452 1451 1452 1453 1454 1456 1457 1459 1460 1460 1460 1459 1458 1457 1456 1454 1453 1451 1450 1448 1446 1445 1443 1441 1441 1440 1440 1440 1440 1439 1439 1439 1440 1441 1442 1442 1443 1444 1445 1445 1447
1477 1478 1475 1476 1472 1468 1469 1459 1447 1447 1448 1449 1451 1452 1454 1456 1457 1457 1457 1456 1455 1454 1452 1451 1449 1447 1446 1444 1442 1440 1438 1437 1436 1435 1434 1434 1434 1434 1434 1434 1435 1435 1436 1436 1438 1439 1440 1440 1442
1478 1475 1476 1477 1480 1475 1469 1474 1449 1446 1447 1448 1449 1450 1451 1453 1454 1454 1453 1452 1451 1450 1448 1447 1445 1443 1442 1440 1438 1436 1433 1431 1430 1430 1429 1429 1429 1428 1428 1428 1428 1429 1430 1430 1432 1433 1435 1436 1436
1476 1476 1477 1477 1479 1480 1470 1476 1456 1444 1446 1446 1447 1448 1449 1450 1451 1451 1450 1449 1448 1446 1445 1443 1441 1439 1438 1436 1434 1431 1429 1427 1426 1424 1423 1422 1422 1422 1422 1422 1422 1422 1423 1424 1425 1427 1429 1430 1431
1477 1477 1475 1477 1479 1484 1466 1469 1455 1444 1441 1441 1443 1445 1446 1447 1448 1448 1447 1446 1444 1443 1441 1439 1437 1434 1433 1431 1429 1427 1424 1422 1420 1418 1417 1416 1415 1414 1414 1414 1415 1415 1416 1417 1418 1420 1421 1423 1425
1478 1481 1482 1481 1481 1471 1455 1461 1452 1436 1435 1437 1440 1442 1444 1445 1445 1444 1443 1442 1440 1438 1436 1434 1432 1430 1428 1426 1424 1422 1420 1417 1415 1413 1411 1409 1408 1407 1406 1407 1407 1407 1408 1410 1412 1413 1414 1416 1417
1477 1478 1485 1484 1474 1462 1459 1460 1444 1434 1434 1436 1438 1440 1441 1442 1442 1441 1440 1438 1437 1435 1432 1430 1428 1425 1423 1421 1419 1417 1414 1412 1409 1407 1405 1403 1401 1399 1399 1399 1399 1400 1401 1402 1404 1405 1406 1408 1410
1475 1478 1477 1482 1482 1480 1460 1443 1436 1433 1434 1435 1437 1438 1438 1438 1438 1437 1436 1434 1433 1431 1428 1426 1423 1421 1418 1416 1414 1411 1408 1406 1403 1400 1398 1396 1393 1392 1391 1391 1392 1392 1393 1394 1395 1396 1398 1400 1402
1475 1474 1482 1484 1484 1475 1453 1444 1441 1436 1435 1435 1435 1435 1435 1435 1434 1433 1432 1430 1428 1427 1424 1422 1419 1416 1414 1411 1408 1405 1402 1399 1396 1393 1390 1388 1386 1385 1384 1383 1383 1383 1384 1385 1387 1388 1389 1392 1394
1476 1477 1477 1478 1476 1477 1466 1448 1429 1430 1430 1431 1432 1432 1432 1432 1431 1429 1428 1426 1425 1422 1420 1417 1414 1411 1408 1405 1402 1399 1396 1393 1390 1386 1383 1381 1379 1378 1377 1376 1375 1375 1375 1377 1378 1379 1381 1383 1385
1468 1470 1475 1482 1479 1474 1473 1453 1427 1427 1427 1429 1430 1430 1429 1428 1427 1426 1424 1422 1420 1418 1415 1412 1409 1405 1402 1399 1396 1392 1389 1386 1383 1380 1377 1375 1373 1371 1370 1369 1368 1367 1367 1368 1369 1370 1372 1374 1376